TimeEST,TemperatureF,Dew PointF,Humidity,Sea Level PressureIn,VisibilityMPH,Wind Direction,Wind SpeedMPH,Gust SpeedMPH,PrecipitationIn,Events,Conditions,WindDirDegrees,DateUTC
12:10 AM,26.6,24.8,93,30.11,10.0,Calm,Calm,-,0.00,,Clear,0,2013-02-25 05:10:00
12:30 AM,26.6,24.8,93,30.11,10.0,Calm,Calm,-,0.00,,Clear,0,2013-02-25 05:30:00
12:55 AM,24.8,23.0,93,30.11,10.0,Calm,Calm,-,0.00,,Clear,0,2013-02-25 05:55:00
1:15 AM,24.8,24.8,100,30.11,9.0,Calm,Calm,-,0.00,,Clear,0,2013-02-25 06:15:00
1:30 AM,24.8,24.8,100,30.11,10.0,Calm,Calm,-,0.00,,Clear,0,2013-02-25 06:30:00
1:55 AM,23.0,23.0,100,30.11,8.0,Calm,Calm,-,0.00,,Clear,0,2013-02-25 06:55:00
2:15 AM,24.8,24.8,100,30.12,9.0,Calm,Calm,-,0.00,,Clear,0,2013-02-25 07:15:00
2:30 AM,23.0,23.0,100,30.11,9.0,Calm,Calm,-,0.00,,Clear,0,2013-02-25 07:30:00
2:55 AM,23.0,23.0,100,30.11,10.0,Calm,Calm,-,0.00,,Clear,0,2013-02-25 07:55:00
3:15 AM,23.0,23.0,100,30.10,10.0,Calm,Calm,-,0.00,,Clear,0,2013-02-25 08:15:00
3:30 AM,23.0,23.0,100,30.10,10.0,Calm,Calm,-,0.00,,Clear,0,2013-02-25 08:30:00
3:55 AM,21.2,21.2,100,30.09,8.0,Calm,Calm,-,0.00,,Clear,0,2013-02-25 08:55:00
4:15 AM,21.2,21.2,100,30.09,10.0,Calm,Calm,-,0.00,,Clear,0,2013-02-25 09:15:00
4:30 AM,23.0,23.0,100,30.09,10.0,Calm,Calm,-,0.00,,Clear,0,2013-02-25 09:30:00
4:55 AM,23.0,21.2,93,30.10,10.0,Calm,Calm,-,0.00,,Clear,0,2013-02-25 09:55:00
5:15 AM,23.0,21.2,93,30.12,10.0,Calm,Calm,-,0.00,,Clear,0,2013-02-25 10:15:00
5:30 AM,24.8,23.0,93,30.12,10.0,Calm,Calm,-,0.00,,Clear,0,2013-02-25 10:30:00
5:55 AM,23.0,21.2,93,30.13,10.0,Calm,Calm,-,0.00,,Clear,0,2013-02-25 10:55:00
6:15 AM,21.2,19.4,93,30.14,10.0,Calm,Calm,-,0.00,,Clear,0,2013-02-25 11:15:00
6:30 AM,21.2,21.2,100,30.14,10.0,ESE,3.5,-,0.00,,Clear,110,2013-02-25 11:30:00
6:55 AM,23.0,19.4,86,30.15,10.0,Calm,Calm,-,0.00,,Clear,0,2013-02-25 11:55:00
7:15 AM,21.2,19.4,93,30.15,10.0,Calm,Calm,-,0.00,,Clear,0,2013-02-25 12:15:00
7:30 AM,21.2,19.4,93,30.15,10.0,Calm,Calm,-,0.00,,Clear,0,2013-02-25 12:30:00
7:55 AM,23.0,21.2,93,30.16,9.0,Calm,Calm,-,0.00,,Clear,0,2013-02-25 12:55:00
8:15 AM,26.6,24.8,93,30.16,9.0,Calm,Calm,-,0.00,,Clear,0,2013-02-25 13:15:00
8:30 AM,26.6,26.6,100,30.16,10.0,Calm,Calm,-,0.00,,Clear,0,2013-02-25 13:30:00
8:55 AM,30.2,26.6,86,30.16,10.0,East,3.5,-,0.00,,Clear,80,2013-02-25 13:55:00
9:15 AM,32.0,24.8,75,30.15,10.0,East,5.8,-,0.00,,Clear,80,2013-02-25 14:15:00
9:30 AM,32.0,24.8,75,30.15,10.0,East,9.2,-,0.00,,Clear,80,2013-02-25 14:30:00
9:55 AM,33.8,24.8,70,30.14,10.0,ESE,6.9,-,0.00,,Clear,120,2013-02-25 14:55:00
10:10 AM,33.8,23.0,65,30.14,10.0,ESE,8.1,-,0.00,,Clear,110,2013-02-25 15:10:00
10:30 AM,33.8,24.8,70,30.15,10.0,ESE,8.1,-,0.00,,Clear,110,2013-02-25 15:30:00
10:55 AM,35.6,24.8,65,30.14,10.0,ENE,5.8,-,0.00,,Clear,60,2013-02-25 15:55:00
11:10 AM,35.6,26.6,70,30.14,10.0,ENE,5.8,-,0.00,,Clear,60,2013-02-25 16:10:00
11:30 AM,35.6,26.6,70,30.14,10.0,ESE,6.9,-,0.00,,Clear,110,2013-02-25 16:30:00
11:55 AM,35.6,26.6,70,30.14,10.0,East,4.6,-,0.00,,Clear,100,2013-02-25 16:55:00
12:10 PM,35.6,26.6,70,30.13,10.0,East,6.9,-,0.00,,Clear,80,2013-02-25 17:10:00
12:30 PM,37.4,26.6,65,30.12,10.0,ESE,8.1,-,0.00,,Clear,120,2013-02-25 17:30:00
12:55 PM,37.4,26.6,65,30.10,10.0,East,5.8,-,0.00,,Clear,100,2013-02-25 17:55:00
1:10 PM,39.2,26.6,61,30.09,10.0,SE,8.1,-,0.00,,Clear,140,2013-02-25 18:10:00
1:30 PM,39.2,28.4,65,30.09,10.0,ESE,4.6,-,0.00,,Clear,120,2013-02-25 18:30:00
1:55 PM,39.2,26.6,61,30.07,10.0,SE,8.1,-,0.00,,Clear,130,2013-02-25 18:55:00
2:10 PM,39.2,26.6,61,30.06,10.0,East,8.1,-,0.00,,Clear,90,2013-02-25 19:10:00
2:30 PM,39.2,26.6,61,30.06,10.0,ENE,6.9,-,0.00,,Clear,60,2013-02-25 19:30:00
2:50 PM,39.2,26.6,61,30.06,10.0,ESE,3.5,-,0.00,,Clear,120,2013-02-25 19:50:00
3:10 PM,41.0,26.6,57,30.06,10.0,East,5.8,-,0.00,,Clear,80,2013-02-25 20:10:00
3:35 PM,41.0,26.6,57,30.05,10.0,ENE,6.9,-,0.00,,Clear,60,2013-02-25 20:35:00
3:50 PM,42.8,26.6,53,30.06,10.0,East,3.5,-,0.00,,Clear,100,2013-02-25 20:50:00
4:10 PM,41.0,28.4,61,30.05,10.0,ENE,9.2,-,0.00,,Clear,60,2013-02-25 21:10:00
4:35 PM,41.0,28.4,61,30.03,10.0,ENE,10.4,-,0.00,,Clear,60,2013-02-25 21:35:00
4:50 PM,41.0,26.6,57,30.03,10.0,East,6.9,-,0.00,,Clear,90,2013-02-25 21:50:00
5:10 PM,39.2,28.4,65,30.02,10.0,ENE,12.7,-,0.00,,Clear,60,2013-02-25 22:10:00
5:35 PM,39.2,26.6,61,30.02,10.0,East,10.4,-,0.00,,Clear,80,2013-02-25 22:35:00
5:50 PM,39.2,28.4,65,30.02,10.0,ENE,9.2,-,0.00,,Clear,60,2013-02-25 22:50:00
9:15 PM,33.8,28.4,81,29.96,10.0,ENE,10.4,-,0.00,,Clear,70,2013-02-26 02:15:00
9:30 PM,33.8,26.6,75,29.97,10.0,ENE,9.2,-,0.00,,Clear,70,2013-02-26 02:30:00
9:50 PM,32.0,26.6,80,29.98,10.0,NE,5.8,-,0.00,,Clear,50,2013-02-26 02:50:00
10:15 PM,32.0,26.6,80,29.99,10.0,NE,6.9,-,0.00,,Clear,50,2013-02-26 03:15:00
10:30 PM,32.0,26.6,80,29.99,10.0,NE,5.8,-,0.00,,Clear,40,2013-02-26 03:30:00
10:55 PM,30.2,26.6,86,29.99,10.0,NE,8.1,-,0.00,,Clear,50,2013-02-26 03:55:00
11:15 PM,32.0,26.6,80,29.97,10.0,NE,9.2,-,0.00,,Clear,50,2013-02-26 04:15:00
11:30 PM,32.0,26.6,80,29.96,10.0,NE,9.2,-,0.00,,Clear,50,2013-02-26 04:30:00
11:55 PM,32.0,26.6,80,29.95,10.0,ENE,9.2,-,0.00,,Clear,60,2013-02-26 04:55:00